sat.trackr.live / text

‹ back to catalog

BIFROST-DNK

NORAD 64588 · 2025-135BN

PAYLOAD ACTIVE UNKNOWN

§ Identity

Operator
Country
DEN
Launch date
2025-06-23
Launch site
AFWTR
Launch vehicle
Mass (kg)
RCS (m²)

External: N2YO · Heavens-Above · Gunter

§ Orbital elements

Epoch: 2026-09-21T20:46:51.822912Z

Period
96.32 min
Inclination
97.7827°
Eccentricity
0.0004970
Mean motion
14.95022823 rev/d
Perigee alt
578.8 km
Apogee alt
585.8 km
Semi-major
6,960.4 km
B*
1.7569e-4
RAAN
18.7181°
Arg perigee
41.9118°
Mean anomaly
318.2483°
Rev number
6,835

§ Raw data

BIFROST-DNK1 64588U 25135BN  26264.86587758  .00001865  00000+0  17569-3 0  99912 64588  97.7827  18.7181 0004970  41.9118 318.2483 14.95022823 68350

JSON: /api/v1/satellites/64588 · /tle

For live sub-satellite position, see the globe view (requires WebGL).

§ Visibility from observer

Set your observer location to see the next 7 days of passes ≥ 10°. The values pass through the URL so the page stays shareable.

No JS? Fill the form by hand. The geolocation button needs JavaScript.

§ Radio — SatNOGS DB

ModeDescriptionDownlinkUplink
FM S-band telemetry 2.256 GHz

1 transmitter · refreshed weekly from db.satnogs.org